Home   Weather   Ibbenbüren   Past weeks

Flag for Germany Past Weather in Ibbenbüren, North Rhine-Westphalia, Germany — Yesterday and Last 2 Weeks

Now
27 °F

Ice fog.


Feels Like: 27 °F
Forecast: 26 / 35 °F
Wind: 1 mph from Northeast

Location: Muenster / Osnabrueck

Current Time: Dec 3, 2016 at 9:04:37 pm

Latest Report: Dec 3, 2016 at 8:20 pm


Visibility: 0 mi

Pressure: 30.33 "Hg

Humidity: 100%

Dew Point: 27 °F

Location of IbbenbürenLocation

Past Weather in Ibbenbüren — Graph

°F

Ibbenbüren Temperature Yesterday

Maximum temperature yesterday: 46 °F (at 12:20 am)
Minimum temperature yesterday: 27 °F (at 11:50 pm)
Average temperature yesterday: 41 °F

High & Low Weather Summary for the Past Weeks

 TemperatureHumidityPressure
High57 °F (Nov 20, 2:50 pm)100% (Nov 23, 4:50 am)30.60 "Hg (Nov 23, 4:50 am)
Low18 °F (Nov 29, 7:20 am)55% (Nov 20, 4:50 pm)29.27 "Hg (Nov 20, 12:50 pm)
Average39 °F86%30.08 "Hg
* Reported Nov 18 7:20 pm — Dec 3 7:50 pm, Ibbenbüren, Weather by CustomWeather, © 2016

Note: Actual official high and low records may vary slightly from our data, if they occured in-between our weather recording intervals... More about our weather records

Advertising

Ibbenbüren Weather History for the Previous 24 Hours

Scroll right to see more
 ConditionsComfort  
Time TempWeatherWind HumidityBarometerVisibility
7:50 pm
Sat, Dec 3
27 °FIce fog.No wind100%30.33 "Hg1 mi
7:20 pm28 °FIce fog.No wind93%30.33 "Hg1 mi
6:50 pm28 °FIce fog.No wind93%30.33 "Hg1 mi
6:20 pm28 °FIce fog.1 mph100%30.33 "Hg1 mi
5:50 pm28 °FIce fog.No wind100%30.33 "Hg1 mi
5:20 pm30 °FIce fog.No wind100%30.33 "Hg1 mi
4:50 pm32 °FIce fog.1 mph100%30.30 "Hg2 mi
4:20 pm34 °FFog.1 mph93%30.30 "Hg4 mi
3:50 pm36 °FScattered clouds.2 mph93%30.30 "Hg4 mi
3:20 pm37 °FPassing clouds.No wind87%30.30 "Hg4 mi
2:50 pm37 °FPassing clouds.2 mph93%30.30 "Hg4 mi
2:20 pm37 °FPassing clouds.2 mph93%30.30 "Hg4 mi
1:50 pm36 °FScattered clouds.1 mph100%30.30 "Hg4 mi
1:20 pm36 °FFog.2 mph93%30.30 "Hg3 mi
12:50 pm34 °FFog.2 mph100%30.30 "Hg3 mi
12:20 pm34 °FFog.1 mph100%30.30 "Hg2 mi
11:50 am32 °FIce fog.2 mph100%30.33 "Hg2 mi
11:20 am32 °FIce fog.1 mph100%30.33 "Hg2 mi
10:50 am32 °FIce fog.3 mph93%30.33 "Hg2 mi
10:20 am30 °FIce fog.2 mph100%30.30 "Hg2 mi
9:50 am30 °FIce fog.2 mph100%30.30 "Hg2 mi
9:20 am30 °FIce fog.1 mph93%30.30 "Hg2 mi
8:50 am28 °FIce fog.1 mph100%30.30 "Hg2 mi
8:20 am28 °FIce fog.2 mph100%30.30 "Hg2 mi
7:50 am28 °FFog.2 mph100%30.27 "Hg4 mi
7:20 am28 °FFog.3 mph100%30.27 "Hg4 mi
6:50 am27 °FFog.1 mph93%30.27 "Hg4 mi
6:20 am25 °FCold.1 mph100%30.27 "Hg4 mi
5:50 am27 °FFog.2 mph93%30.27 "Hg4 mi
5:20 am27 °FPassing clouds.1 mph93%30.27 "HgN/A
4:50 am27 °FPassing clouds.No wind100%30.27 "HgN/A
4:20 am28 °FPassing clouds.No wind93%30.27 "HgN/A
3:50 am28 °FPassing clouds.2 mph93%30.27 "HgN/A
3:20 am27 °FPassing clouds.1 mph100%30.27 "HgN/A
2:50 am27 °FChilly.1 mph100%30.27 "HgN/A
2:20 am27 °FFog.1 mph100%30.27 "HgN/A
1:50 am27 °FFog.1 mph93%30.27 "HgN/A
1:20 am28 °FFog.2 mph93%30.27 "HgN/A
12:50 am28 °FFog.1 mph100%30.27 "HgN/A
12:20 am27 °FChilly.No wind100%30.27 "HgN/A
11:50 pm
Fri, Dec 2
27 °FChilly.No wind100%30.27 "HgN/A
11:20 pm28 °FChilly.No wind100%30.24 "HgN/A
10:50 pm28 °FChilly.No wind93%30.24 "HgN/A
10:20 pm28 °FSleet. Overcast.No wind93%30.24 "HgN/A
9:50 pm28 °FFog.No wind93%30.24 "HgN/A
9:20 pm30 °FChilly.1 mph93%30.24 "HgN/A
Weather by CustomWeather, © 2016

See weather overviewHow to use our weather pages